Find Starlink 11553

NORAD ID: 63006 Int'l Des: 2025-032 Owner: SPXS Country: US Constellation: starlink operational
LEOCIRCULAR

現在のビュー

3D地球を読み込み中...

About Starlink 11553

Starlink 11553 (NORAD 63006) is a starlink constellation satellite (v2 mini d2c) launched Feb 15, 2025 by SPXS of US. It operates in LEO, CIRCULAR orbit with a mass of 960.00 kg.

Starlink 11553について

説明を読み込み中...

次回通過

Passes for default location (London). Set your location on the main map for personalized predictions.

高度履歴

Loading altitude history...

軌道要素

1 63006U 25032B 26160.84808307 .00178037 00000-0 13593-2 0 9999
2 63006 42.9987 0.2288 0001863 255.2578 104.8084 15.70878489 76700
Epoch: Jun 9, 2026 • Age: 16 hours

現在のステータス

高度 354.9 km
速度 7.70 km/s
衛星直下点 5.32°N, 86.51°E
打ち上げ日 Feb 15, 2025
運用期間 1.3 years
タイプ internet

技術仕様

分類 Payload
質量 960.00 kg
乾燥質量 910.00 kg
総質量 960.00 kg
長さ 0.30 m
直径 4.10 m
スパン 29.00 m
形状 Box + pan
製造者 SPXS
バスタイプ Starlink V2MD
フェーズステータス In Orbit
所有者/国 SPXS/US

Most Searched